TimeEST,TemperatureF,Dew PointF,Humidity,Sea Level PressureIn,VisibilityMPH,Wind Direction,Wind SpeedMPH,Gust SpeedMPH,PrecipitationIn,Events,Conditions,WindDirDegrees,DateUTC
12:53 AM,37.0,26.1,65,30.09,10.0,SSW,9.2,-,N/A,,Clear,210,2013-01-20 05:53:00
1:53 AM,37.0,26.1,65,30.08,10.0,SSW,8.1,-,N/A,,Clear,210,2013-01-20 06:53:00
2:53 AM,37.9,26.1,62,30.06,10.0,SSW,6.9,-,N/A,,Clear,210,2013-01-20 07:53:00
3:53 AM,35.1,26.1,70,30.05,10.0,SSW,5.8,-,N/A,,Clear,210,2013-01-20 08:53:00
4:53 AM,33.1,25.0,72,30.04,10.0,SSW,3.5,-,N/A,,Clear,210,2013-01-20 09:53:00
5:53 AM,30.9,25.0,79,30.04,10.0,SSW,3.5,-,N/A,,Clear,200,2013-01-20 10:53:00
6:53 AM,30.0,24.1,79,30.05,10.0,SW,5.8,-,N/A,,Clear,220,2013-01-20 11:53:00
7:53 AM,32.0,25.0,75,30.05,10.0,SW,5.8,-,N/A,,Clear,230,2013-01-20 12:53:00
8:53 AM,37.9,28.0,68,30.05,10.0,SW,4.6,-,N/A,,Clear,220,2013-01-20 13:53:00
9:53 AM,48.9,30.9,50,30.06,10.0,WSW,9.2,-,N/A,,Clear,250,2013-01-20 14:53:00
10:53 AM,54.0,30.9,41,30.05,10.0,WSW,13.8,-,N/A,,Clear,240,2013-01-20 15:53:00
11:53 AM,55.9,32.0,40,30.02,10.0,West,13.8,21.9,N/A,,Clear,260,2013-01-20 16:53:00
12:53 PM,59.0,32.0,36,29.99,10.0,West,11.5,18.4,N/A,,Clear,270,2013-01-20 17:53:00
1:53 PM,61.0,28.9,30,29.97,10.0,West,13.8,21.9,N/A,,Clear,270,2013-01-20 18:53:00
2:53 PM,60.1,26.1,27,29.97,10.0,West,19.6,29.9,N/A,,Clear,270,2013-01-20 19:53:00
3:53 PM,60.1,24.1,25,29.98,10.0,WNW,13.8,23.0,N/A,,Clear,290,2013-01-20 20:53:00
4:53 PM,57.0,25.0,29,29.99,10.0,West,10.4,-,N/A,,Clear,270,2013-01-20 21:53:00
5:53 PM,53.1,26.1,35,30.03,10.0,WNW,8.1,-,N/A,,Clear,290,2013-01-20 22:53:00
6:53 PM,50.0,26.1,39,30.06,10.0,West,5.8,-,N/A,,Clear,270,2013-01-20 23:53:00
7:53 PM,46.9,27.0,46,30.07,10.0,West,6.9,-,N/A,,Clear,270,2013-01-21 00:53:00
8:53 PM,43.0,27.0,53,30.07,10.0,WSW,5.8,-,N/A,,Clear,250,2013-01-21 01:53:00
9:53 PM,39.0,27.0,62,30.08,10.0,WSW,5.8,-,N/A,,Clear,250,2013-01-21 02:53:00
10:53 PM,37.9,27.0,65,30.08,10.0,Calm,Calm,-,N/A,,Clear,0,2013-01-21 03:53:00
11:53 PM,39.0,27.0,62,30.07,10.0,West,4.6,-,N/A,,Clear,270,2013-01-21 04:53:00